Location: Beccas
(43.4309°N, 0.1528°E)
Time: 23:28:32
(UTC+00:00)

USA 267 - Pass Details

Date: 15 October 2021
Orbit: 1101 x 1107 km, 123.0° (Epoch: 25 November)

Event Time Altitude Azimuth Distance (km) Brightness Sun altitude
Rises 17:27:12 0° 148° (SSE) 3,904 5.9 -2.8°
Reaches altitude 10° 17:29:46 10° 153° (SSE) 2,949 5.3 -3.3°
Maximum altitude 17:36:03 50° 228° (SW) 1,370 4.3 -4.4°
Drops below altitude 10° 17:42:22 10° 303° (WNW) 2,962 6.4 -5.5°
Sets 17:44:58 0° 308° (NW) 3,923 6.9 -6.0°
